TG8ARF-18 Weather Reports


time (UTC)temp
C
wind
direction
speed
KPH
gust
KPH
rain 1hr
cm
rain 24hr
cm
rain mn
cm
humidity
%
barometer
mb
20260504045803 15 38 11.3 12.9 0.00 0.00 0.00 89 1019.0
20260504044802 13 38 11.3 12.9 0.00 0.00 0.00 89 1019.0
20260504043802 16 42 8.0 8.0 0.00 0.00 0.00 91 1019.0
20260504042801 15 42 8.0 8.0 0.00 0.00 0.00 91 1019.0
20260504041801 13 42 9.7 9.7 0.00 0.00 0.00 91 1019.0
20260504040800 16 42 8.0 8.0 0.00 0.00 0.00 88 1019.0
20260504035759 15 42 8.0 8.0 0.00 0.00 0.00 88 1019.0
20260504034759 14 42 8.0 8.0 0.00 0.00 0.00 88 1019.0
20260504033758 13 42 9.7 9.7 0.00 0.00 0.00 88 1019.0
20260504032757 16 45 8.0 8.0 0.00 0.00 0.00 89 1018.0
20260504031757 15 45 8.0 8.0 0.00 0.00 0.00 89 1018.0
20260504030756 14 45 8.0 8.0 0.00 0.00 0.00 89 1018.0
20260504025756 13 45 8.0 8.0 0.00 0.00 0.00 89 1018.0
20260504024755 15 51 8.0 6.4 0.00 0.00 0.00 92 1018.0
20260504023754 14 51 8.0 6.4 0.00 0.00 0.00 92 1018.0
20260504022754 13 51 8.0 6.4 0.00 0.00 0.00 92 1018.0
20260504021753 15 51 8.0 6.4 0.00 0.00 0.00 90 1018.0
20260504020752 14 51 8.0 6.4 0.00 0.00 0.00 90 1018.0
20260504015752 13 51 8.0 6.4 0.00 0.00 0.00 90 1018.0
20260504014751 15 41 8.0 8.0 0.00 0.00 0.00 91 1018.0
20260504013750 14 41 8.0 8.0 0.00 0.00 0.00 91 1018.0
20260504012750 13 41 8.0 8.0 0.00 0.00 0.00 91 1017.0
20260504011749 17 41 8.0 8.0 0.00 0.00 0.00 89 1017.0
20260504010748 16 41 8.0 8.0 0.00 0.00 0.00 89 1017.0
20260504005748 17 41 8.0 8.0 0.00 0.00 0.00 87 1017.0
20260504004747 16 41 8.0 8.0 0.00 0.00 0.00 87 1017.0
20260504003747 18 52 6.4 8.0 0.00 0.00 0.00 87 1017.0
20260504002746 17 52 6.4 8.0 0.00 0.00 0.00 87 1015.0
20260504001745 17 52 6.4 8.0 0.00 0.00 0.00 87 1015.0
20260504000745 16 52 6.4 9.7 0.03 0.00 0.00 87 1015.0
20260503235744 17 52 6.4 8.0 0.00 0.00 0.00 84 1015.0
20260503234743 16 52 6.4 9.7 0.03 0.00 0.00 84 1015.0
20260503233743 18 100 1.6 4.8 0.03 0.00 0.00 83 1015.0
20260503232742 17 100 1.6 4.8 0.00 0.00 0.00 83 1015.0
20260503231742 16 100 1.6 4.8 0.00 0.00 0.00 83 1015.0
20260503230741 18 100 1.6 4.8 0.00 0.00 0.00 81 1015.0
20260503225740 17 100 1.6 4.8 0.00 0.00 0.00 81 1015.0
20260503224739 16 100 1.6 4.8 0.00 0.00 0.00 81 1015.0
20260503223739 18 206 1.6 4.8 0.00 0.00 0.00 77 1015.0
20260503222738 17 206 3.2 4.8 0.03 0.00 0.00 77 1015.0
20260503221738 19 206 1.6 4.8 0.03 0.00 0.00 76 1015.0
20260503220737 18 206 3.2 4.8 0.05 0.00 0.00 76 1015.0
20260503215736 18 206 3.2 4.8 0.10 0.00 0.00 76 1015.0
20260503214736 19 206 1.6 4.8 0.15 0.00 0.00 76 1015.0
20260503213735 18 206 3.2 4.8 0.10 0.00 0.00 76 1015.0
20260503212734 21 236 6.4 4.8 0.13 0.00 0.00 74 1015.0
20260503211734 20 236 6.4 4.8 0.15 0.00 0.00 74 1015.0
20260503210733 20 236 6.4 4.8 0.15 0.00 0.00 74 1015.0
20260503205733 18 236 6.4 4.8 0.13 0.00 0.00 74 1015.0
20260503204732 20 236 6.4 4.8 0.10 0.00 0.00 74 1015.0
20260503203731 19 236 6.4 4.8 0.10 0.00 0.00 74 1015.0
20260503202731 22 214 9.7 4.8 0.00 0.00 0.00 72 1016.0
20260503201730 22 214 9.7 4.8 0.00 0.00 0.00 72 1016.0
20260503200729 22 214 9.7 4.8 0.00 0.00 0.00 71 1016.0
20260503195729 22 214 9.7 4.8 0.00 0.00 0.00 71 1016.0
20260503194728 22 214 9.7 4.8 0.00 0.00 0.00 71 1016.0
20260503193727 22 214 9.7 4.8 0.03 0.00 0.00 70 1016.0
20260503192727 22 211 9.7 6.4 0.03 0.00 0.00 69 1016.0
20260503191726 22 211 9.7 6.4 0.03 0.00 0.00 69 1016.0
20260503190726 22 211 9.7 6.4 0.03 0.00 0.00 69 1016.0
20260503185725 22 211 8.0 6.4 0.00 0.00 0.00 68 1016.0
20260503184724 21 211 9.7 6.4 0.03 0.00 0.00 68 1016.0
20260503183724 23 226 8.0 6.4 0.03 0.00 0.00 67 1016.0
20260503182723 22 226 8.0 6.4 0.00 0.00 0.00 67 1017.0
20260503181722 21 226 8.0 6.4 0.00 0.00 0.00 67 1017.0
20260503180722 23 223 6.4 8.0 0.00 0.00 0.00 64 1017.0
20260503175721 22 223 6.4 8.0 0.00 0.00 0.00 64 1017.0
20260503174721 21 223 6.4 8.0 0.00 0.00 0.00 64 1017.0
20260503173720 20 223 6.4 8.0 0.00 0.00 0.00 64 1017.0
20260503172719 20 223 6.4 8.0 0.00 0.00 0.00 64 1017.0
20260503171719 22 223 6.4 8.0 0.00 0.00 0.00 63 1017.0
20260503170718 21 223 6.4 8.0 0.00 0.00 0.00 63 1017.0
20260503150710 19 196 1.6 6.4 0.00 0.00 0.00 71 1017.0
20260503130704 15 53 6.4 8.0 0.00 0.00 0.00 86 1018.0
20260503110655 13 42 14.5 17.7 0.00 0.00 0.00 91 1018.0
20260503080644 15 52 6.4 4.8 0.00 0.00 0.00 89 1018.0
20260503072641 15 46 8.0 8.0 0.00 0.00 0.00 89 1019.0